Wind_Speed
72 68 64 58 69 72 67 68 69 65 69 71 76 72 73 76 77 80 81 79 78 75 76 74 71 72 73 74 76 79 78 78 75 71 74 73 72 70 72 72 73 73 73
66 65 68 57 66 67 64 61 63 65 67 65 68 72 71 65 72 76 75 74 74 73 76 75 76 71 72 72 76 78 76 78 77 76 75 76 78 76 75 75 76 75 73
67 64 63 60 62 63 60 62 63 65 62 61 58 56 63 64 66 63 72 74 76 70 72 77 77 77 74 76 76 74 79 81 81 83 80 81 82 79 76 77 77 76 75
59 61 61 54 57 57 55 60 63 58 58 50 41 45 41 40 48 44 44 45 48 67 78 72 71 78 80 76 78 80 86 86 87 86 84 80 82 80 79 77 75 75 73
56 54 54 51 55 57 56 59 57 50 45 40 28 26 31 31 35 37 33 34 34 43 55 61 61 69 71 74 80 86 88 87 85 83 78 77 78 78 74 73 70 67 67
42 44 44 44 47 54 55 56 43 46 41 27 18 16 20 24 28 30 28 29 31 34 39 43 57 60 60 64 68 69 73 77 77 80 80 74 73 68 68 67 62 62 62
25 22 26 26 30 47 52 48 41 44 37 24 21 16 17 17 20 25 24 25 22 25 31 39 41 43 48 62 66 68 70 67 64 66 65 62 61 56 59 59 60 56 53
23 28 29 26 30 35 44 43 42 43 36 24 13 12 17 19 18 16 13 18 18 29 40 43 43 41 39 44 52 56 61 60 58 53 54 55 53 51 51 53 52 45 44
21 33 43 40 35 37 42 37 46 42 33 24 23 21 21 21 21 19 18 18 23 31 38 29 31 33 30 33 39 43 44 46 45 48 49 44 45 48 47 45 46 47 46
26 29 39 36 29 38 44 51 43 41 36 31 25 26 24 21 18 22 25 28 31 41 26 30 34 27 27 27 26 30 33 35 40 41 42 41 41 42 42 44 44 44 49
28 31 32 35 40 44 49 46 46 39 31 28 22 16 16 14 19 25 28 33 33 27 43 25 37 27 26 23 23 27 29 29 33 35 39 42 43 43 44 45 46 49 51
26 31 32 38 39 43 41 44 42 34 28 25 21 17 20 25 30 35 30 23 19 28 26 42 27 28 29 22 26 28 26 25 30 34 40 40 40 42 42 44 48 53 54
21 33 35 36 39 45 43 46 37 31 28 36 28 22 26 30 32 25 22 24 32 29 36 35 23 30 27 23 30 26 29 28 34 40 42 41 42 43 45 49 54 54 56
22 30 39 39 45 41 37 40 36 43 42 41 38 35 31 31 32 26 24 16 23 25 25 16 27 29 27 30 28 30 36 38 50 40 41 43 45 48 49 55 54 54 56
31 31 31 37 32 44 41 37 45 36 42 44 51 41 40 33 37 37 27 27 15 23 23 21 26 27 31 31 37 37 39 40 44 45 47 48 52 56 55 54 54 55 62
33 35 38 36 36 29 33 34 38 39 43 42 38 47 47 41 37 34 32 25 23 27 22 24 25 28 30 37 40 50 50 44 48 53 54 53 57 52 53 54 59 66 71
40 33 37 40 34 33 38 33 38 43 34 50 51 54 50 44 40 40 38 33 33 27 29 32 36 35 43 51 51 54 49 49 54 58 56 57 56 55 60 65 65 72 71
38 36 30 36 26 33 37 38 37 49 44 46 47 50 51 51 48 48 44 36 36 37 38 39 43 51 54 54 50 52 56 57 57 60 61 63 62 65 67 66 69 70 70
43 33 34 28 30 34 33 41 46 51 50 50 54 55 54 43 45 44 45 44 43 40 43 49 57 59 58 53 53 57 57 61 61 62 62 60 64 63 64 66 67 69 73
48 43 41 33 38 39 42 41 46 50 54 54 59 58 55 52 49 46 47 44 47 53 58 61 62 59 58 56 58 59 59 61 58 58 60 62 65 64 65 68 69 72 75
57 51 48 42 38 43 40 48 48 55 56 55 53 43 39 46 49 49 49 51 58 63 68 69 66 61 60 61 57 60 57 55 59 62 66 68 66 66 66 68 72 76 79
62 59 57 54 45 54 44 41 57 57 58 57 54 56 57 58 55 55 55 58 62 66 63 63 62 62 56 59 53 54 58 61 63 65 66 65 65 69 74 76 76 76 79
68 63 64 61 54 54 58 52 47 55 62 61 62 56 60 63 67 67 69 75 69 68 72 59 62 58 59 54 58 57 58 62 60 63 67 69 75 73 70 73 75 77 80
74 69 63 65 62 53 55 64 62 60 60 64 63 67 69 70 74 74 72 72 71 62 59 60 61 59 60 57 61 59 62 63 68 71 73 73 73 70 72 73 76 78 79
67 74 67 63 67 65 68 59 72 71 69 67 69 72 76 74 68 65 65 65 61 57 55 58 60 59 59 61 63 63 61 65 67 66 68 65 66 71 75 71 76 79 84
45 56 68 67 62 64 65 63 68 72 74 72 73 73 73 73 71 65 67 63 61 62 61 60 63 66 65 64 59 61 65 63 63 62 64 64 66 70 75 82 86 88 93
Wind_Direction
272 269 264 258 256 256 256 254 253 248 247 246 246 248 253 247 248 252 251 252 251 251 250 252 251 253 260 261 265 264 264 264 265 268 268 270 271 274 276 279 281 281 282
268 263 261 251 251 252 250 249 248 244 245 248 246 246 254 253 251 249 253 251 253 252 253 254 254 256 263 266 265 263 264 265 268 271 271 270 272 275 279 280 282 283 285
265 261 256 249 246 248 249 246 241 239 242 245 250 251 249 251 253 251 249 248 253 254 257 256 260 265 265 268 266 266 266 266 269 271 273 273 275 278 278 279 282 285 286
268 262 255 249 245 242 242 241 238 237 243 246 253 242 240 249 242 241 238 246 247 253 251 257 261 260 265 265 265 266 269 271 273 276 277 275 277 280 281 282 283 285 289
266 260 254 244 240 238 235 239 240 232 237 239 229 229 235 239 238 235 236 238 246 251 251 256 261 262 264 266 266 266 270 274 274 276 278 277 277 279 282 284 287 288 292
261 256 246 245 240 235 227 232 232 227 222 208 223 227 218 224 225 227 234 242 253 258 265 268 261 263 265 267 271 275 274 274 273 273 275 279 282 283 284 288 292 293 292
253 248 237 242 248 232 226 224 215 202 197 198 224 209 213 223 221 224 228 240 263 276 290 290 289 290 280 271 271 275 275 274 275 276 279 281 286 287 289 290 294 294 294
245 196 199 160 217 223 224 212 202 194 185 170 190 206 227 222 208 208 230 247 277 285 293 297 298 292 280 276 275 277 278 278 279 282 282 285 289 289 289 292 293 290 290
217 208 188 204 221 208 202 192 176 170 171 172 184 209 212 218 214 218 221 262 274 292 294 304 307 302 298 293 287 283 282 282 281 280 282 281 285 287 287 288 283 284 286
199 201 190 193 188 185 180 172 172 172 175 180 185 214 233 215 227 246 267 276 271 291 296 311 325 321 310 302 295 282 277 277 281 283 287 287 287 287 284 285 284 295 300
180 182 174 170 166 173 169 177 176 176 181 181 182 221 241 252 244 255 269 278 284 285 303 302 311 311 329 320 318 308 300 299 300 297 297 292 291 291 292 298 297 297 296
176 174 168 171 169 173 177 187 195 198 209 195 179 218 251 254 265 270 278 292 280 300 300 300 316 307 322 313 323 318 303 299 312 308 315 311 307 300 298 294 292 294 295
181 181 176 176 178 182 186 189 194 208 219 215 212 237 241 267 275 266 286 283 290 296 298 318 304 311 318 311 323 313 311 308 310 306 302 301 299 296 292 292 294 293 294
187 191 183 184 198 185 190 203 192 206 213 221 227 246 235 258 272 267 300 309 313 307 321 309 309 314 307 315 326 319 314 308 315 300 297 298 302 299 291 289 292 295 295
183 186 184 188 199 210 211 206 205 219 208 211 216 237 251 255 275 269 285 301 283 319 309 310 312 302 301 309 317 316 308 302 302 306 303 300 302 300 296 289 292 294 297
185 184 185 179 186 198 210 211 218 229 206 219 238 234 240 251 268 268 274 275 307 308 301 299 302 306 303 309 303 310 309 303 297 303 303 300 301 298 295 295 293 295 296
180 189 186 187 196 208 214 209 217 205 208 216 220 227 233 253 258 267 268 269 289 290 300 303 303 299 305 306 308 306 303 300 297 295 301 303 298 295 291 295 294 300 295
194 187 198 196 195 204 213 215 206 203 217 225 225 226 243 255 261 264 274 272 284 289 293 295 300 300 304 305 303 300 301 302 299 299 298 299 295 293 294 294 294 294 294
199 207 201 202 197 176 194 197 206 213 213 217 225 234 246 251 256 262 270 283 284 286 293 296 299 303 304 301 298 298 300 298 296 297 295 293 292 287 291 293 295 292 290
203 202 205 202 218 199 194 202 210 213 211 215 220 234 245 255 264 272 276 279 282 287 289 297 294 294 297 295 295 295 296 295 293 293 290 289 291 291 291 290 292 293 293
213 217 218 218 216 221 217 209 208 214 217 228 237 252 264 263 270 277 274 279 282 282 284 289 292 292 293 294 291 295 292 290 288 288 291 291 292 291 291 293 296 296 296
220 222 219 227 230 224 220 226 222 222 225 231 238 244 254 260 265 270 274 281 284 284 286 289 292 295 293 295 286 288 285 287 288 288 288 290 291 293 294 295 297 294 295
222 226 228 232 236 229 224 225 229 234 237 241 242 248 255 259 262 269 271 276 280 282 283 288 291 289 292 290 292 288 290 288 287 287 287 289 292 294 294 293 294 295 296
227 230 233 236 239 236 231 233 231 237 244 249 251 253 257 262 264 270 273 276 281 286 287 288 288 287 287 287 290 288 290 288 288 290 292 292 293 295 294 296 297 301 303
234 232 236 236 240 246 247 241 236 240 250 252 254 258 259 264 270 275 279 282 284 282 282 276 282 288 290 291 291 290 290 291 291 294 294 295 292 295 299 302 303 303 303
240 239 238 239 242 244 247 248 251 249 251 258 256 260 264 269 273 277 280 283 285 287 288 288 286 288 290 287 286 292 296 292 292 295 298 302 306 304 304 305 304 306 305
Height
10719 10724 10729 10735 10733 10735 10744 10750 10754 10762 10762 10768 10777 10783 10784 10795 10804 10805 10809 10811 10814 10816 10817 10820 10823 10825 10825 10826 10829 10829 10829 10828 10831 10832 10832 10834 10835 10837 10835 10833 10832 10831 10830
10699 10709 10706 10719 10716 10721 10730 10737 10741 10746 10751 10756 10765 10773 10772 10787 10792 10797 10799 10803 10804 10809 10811 10813 10816 10817 10816 10819 10819 10819 10816 10817 10821 10820 10822 10825 10825 10826 10825 10823 10821 10819 10819
10685 10690 10692 10700 10702 10707 10716 10722 10728 10737 10742 10747 10756 10763 10766 10776 10782 10787 10790 10792 10796 10799 10801 10802 10806 10807 10807 10809 10810 10809 10804 10808 10812 10812 10814 10815 10814 10815 10814 10812 10812 10811 10809
10669 10671 10676 10686 10689 10694 10703 10709 10715 10730 10736 10743 10747 10751 10757 10763 10769 10775 10781 10783 10784 10788 10790 10793 10797 10793 10794 10799 10799 10798 10795 10799 10800 10802 10805 10806 10804 10803 10803 10804 10802 10801 10799
10650 10655 10660 10669 10677 10682 10692 10699 10711 10724 10731 10737 10739 10743 10749 10753 10759 10765 10770 10774 10776 10777 10779 10785 10786 10787 10789 10789 10786 10786 10789 10790 10791 10792 10794 10794 10795 10793 10794 10792 10792 10790 10787
10638 10644 10654 10660 10664 10675 10681 10689 10705 10715 10726 10731 10734 10738 10741 10747 10751 10758 10762 10766 10770 10771 10774 10781 10781 10778 10778 10775 10775 10777 10779 10781 10782 10782 10785 10784 10784 10783 10783 10782 10779 10779 10777
10632 10638 10649 10651 10654 10663 10673 10684 10694 10707 10718 10722 10727 10733 10738 10741 10744 10747 10755 10762 10764 10765 10768 10772 10772 10771 10769 10769 10769 10768 10770 10771 10771 10773 10775 10773 10773 10771 10772 10770 10769 10767 10766
10628 10633 10645 10641 10642 10655 10668 10677 10688 10701 10711 10715 10719 10726 10734 10738 10742 10745 10750 10756 10758 10759 10759 10762 10762 10763 10759 10758 10758 10761 10763 10763 10765 10765 10765 10764 10763 10762 10760 10760 10759 10757 10756
10620 10630 10636 10639 10647 10653 10664 10674 10685 10697 10706 10710 10716 10723 10726 10731 10736 10741 10746 10749 10751 10751 10753 10754 10754 10751 10749 10749 10751 10752 10755 10757 10758 10758 10757 10754 10753 10753 10752 10752 10750 10750 10748
10617 10625 10637 10637 10643 10653 10662 10673 10684 10691 10698 10705 10708 10718 10720 10726 10730 10736 10741 10744 10744 10743 10745 10744 10743 10742 10741 10744 10744 10746 10748 10749 10749 10749 10749 10747 10746 10745 10744 10744 10743 10741 10738
10616 10623 10631 10636 10642 10654 10664 10675 10682 10687 10692 10697 10702 10710 10712 10716 10723 10728 10734 10735 10736 10735 10735 10737 10739 10738 10739 10738 10737 10739 10740 10742 10742 10742 10742 10742 10741 10739 10738 10736 10733 10732 10730
10620 10626 10631 10638 10647 10654 10661 10673 10680 10683 10686 10692 10696 10706 10709 10712 10718 10723 10726 10728 10730 10729 10729 10731 10730 10732 10733 10733 10732 10731 10733 10734 10737 10737 10737 10736 10734 10731 10729 10727 10726 10724 10720
10624 10629 10636 10644 10651 10657 10663 10668 10674 10679 10683 10688 10694 10700 10705 10707 10710 10715 10718 10723 10723 10725 10723 10720 10723 10725 10726 10728 10726 10725 10726 10728 10729 10730 10728 10726 10724 10722 10720 10718 10715 10712 10711
10628 10633 10637 10643 10650 10654 10661 10667 10669 10678 10683 10685 10689 10695 10700 10702 10705 10707 10710 10713 10715 10716 10717 10717 10719 10718 10720 10721 10720 10722 10723 10723 10722 10719 10716 10715 10713 10712 10710 10707 10704 10700 10697
10629 10632 10639 10646 10651 10652 10658 10665 10672 10674 10681 10683 10688 10691 10693 10697 10697 10698 10703 10707 10709 10709 10708 10709 10710 10711 10713 10712 10712 10712 10712 10711 10710 10709 10706 10705 10702 10700 10696 10693 10691 10688 10685
10632 10634 10638 10643 10648 10649 10653 10661 10668 10672 10675 10680 10685 10688 10689 10692 10692 10694 10697 10700 10701 10702 10703 10706 10707 10709 10708 10708 10707 10704 10703 10702 10700 10697 10695 10693 10691 10686 10683 10681 10681 10680 10675
10629 10633 10637 10643 10646 10649 10654 10662 10666 10669 10673 10677 10681 10683 10685 10688 10690 10691 10692 10695 10697 10696 10698 10699 10699 10699 10699 10700 10697 10695 10694 10692 10691 10689 10683 10678 10676 10677 10676 10673 10670 10666 10660
10629 10631 10636 10640 10646 10649 10654 10659 10663 10667 10669 10674 10678 10680 10679 10683 10686 10687 10687 10687 10688 10689 10690 10691 10692 10691 10690 10689 10687 10686 10685 10683 10679 10675 10673 10671 10668 10666 10663 10659 10655 10651 10646
10625 10630 10637 10640 10644 10647 10653 10654 10657 10661 10664 10669 10672 10672 10674 10676 10678 10679 10681 10681 10680 10681 10682 10683 10682 10680 10679 10678 10676 10673 10671 10671 10669 10666 10664 10661 10657 10652 10648 10644 10639 10635 10630
10622 10626 10633 10637 10643 10646 10648 10653 10656 10659 10661 10664 10667 10668 10668 10669 10671 10673 10673 10672 10672 10672 10673 10674 10671 10671 10670 10668 10666 10663 10659 10658 10656 10653 10651 10648 10644 10639 10635 10628 10623 10620 10614
10615 10623 10629 10633 10638 10642 10646 10648 10649 10656 10659 10661 10662 10662 10662 10664 10665 10666 10665 10665 10666 10667 10666 10665 10662 10661 10660 10658 10654 10653 10650 10646 10645 10640 10635 10632 10627 10623 10619 10614 10607 10601 10594
10607 10615 10621 10626 10631 10636 10640 10643 10647 10649 10651 10654 10655 10655 10656 10658 10658 10658 10657 10657 10657 10656 10653 10653 10651 10649 10648 10646 10643 10641 10638 10634 10632 10626 10620 10616 10612 10607 10604 10599 10591 10584 10577
10600 10607 10613 10618 10623 10629 10634 10636 10639 10643 10647 10647 10647 10647 10648 10650 10650 10648 10648 10647 10646 10644 10642 10640 10639 10637 10637 10633 10633 10630 10625 10621 10617 10612 10606 10603 10598 10591 10587 10580 10574 10566 10559
10592 10599 10606 10610 10615 10621 10626 10629 10631 10634 10637 10638 10639 10641 10640 10642 10639 10638 10638 10638 10637 10633 10630 10629 10628 10624 10623 10622 10620 10618 10614 10608 10604 10597 10592 10587 10582 10575 10570 10563 10555 10548 10541
10582 10591 10596 10600 10606 10609 10616 10619 10622 10625 10626 10627 10630 10630 10630 10629 10630 10629 10626 10625 10624 10622 10619 10617 10615 10610 10608 10607 10605 10604 10600 10597 10589 10583 10578 10569 10565 10560 10554 10546 10539 10532 10525
10572 10579 10584 10592 10596 10601 10604 10605 10609 10611 10613 10613 10616 10616 10617 10618 10617 10615 10613 10614 10613 10608 10606 10603 10599 10595 10594 10591 10590 10589 10585 10580 10574 10568 10562 10556 10550 10545 10538 10530 10520 10512 10504